DW0529 Weather Reports


Display with metric or nautical units.
time (UTC)temp
F
wind
direction
speed
MPH
gust
MPH
rain 1hr
in
rain 24hr
in
rain mn
in
humidity
%
barometer
mb
20260507202811 70 182 2.0 7.0 0.00 0.00 0.00 56 970.4
20260507201738 70 190 2.0 7.0 0.00 0.00 0.00 54 970.5
20260507200801 71 155 2.0 7.0 0.00 0.00 0.00 55 970.7
20260507195817 72 173 2.0 6.0 0.00 0.00 0.00 56 970.7
20260507194832 71 178 1.0 6.0 0.00 0.00 0.00 56 970.8
20260507191534 71 201 1.0 4.0 0.00 0.00 0.00 59 971.0
20260507190537 71 221 1.0 6.0 0.00 0.00 0.00 59 971.0
20260507185525 71 211 1.0 6.0 0.00 0.00 0.00 60 971.1
20260507184505 71 220 1.0 5.0 0.00 0.00 0.00 60 971.1
20260507183514 71 167 1.0 5.0 0.00 0.00 0.00 60 971.2
20260507182514 70 190 1.0 5.0 0.00 0.00 0.00 61 971.2
20260507180410 71 186 0.0 5.0 0.00 0.00 0.00 60 971.2
20260507175345 69 142 1.0 5.0 0.00 0.00 0.00 61 971.3
20260507174332 69 207 1.0 5.0 0.00 0.00 0.00 63 971.3
20260507173303 69 208 1.0 5.0 0.00 0.00 0.00 63 971.4
20260507172307 68 231 1.0 4.0 0.00 0.00 0.00 66 971.4
20260507170158 67 197 1.0 5.0 0.00 0.00 0.00 67 971.4
20260507165134 67 167 1.0 4.0 0.00 0.00 0.00 67 971.4
20260507163054 66 198 0.0 3.0 0.00 0.00 0.00 69 971.7
20260507162103 65 205 0.0 0.0 0.00 0.00 0.00 70 971.7
20260507161045 65 211 0.0 3.0 0.00 0.00 0.00 70 971.7
20260507160015 64 207 0.0 3.0 0.00 0.00 0.00 69 971.7
20260507155001 64 195 0.0 1.0 0.00 0.00 0.00 69 971.7
20260507154022 63 195 0.0 2.0 0.00 0.00 0.00 71 971.8
20260507153040 62 194 0.0 2.0 0.00 0.00 0.00 72 971.7
20260507152032 61 169 0.0 0.0 0.00 0.00 0.00 75 971.6
20260507151019 60 169 0.0 0.0 0.00 0.00 0.00 76 971.7
20260507150039 60 168 0.0 0.0 0.00 0.00 0.00 75 971.8
20260507145026 59 168 0.0 0.0 0.00 0.00 0.00 75 971.7
20260507143951 58 168 0.0 0.0 0.00 0.00 0.00 74 971.7
20260507141849 57 168 0.0 0.0 0.00 0.00 0.00 79 971.6
20260507140829 56 168 0.0 0.0 0.00 0.00 0.00 80 971.4
20260507134716 57 168 0.0 0.0 0.00 0.00 0.00 79 971.1
20260507132551 57 98 0.0 0.0 0.00 0.00 0.00 76 970.9
20260507131527 57 98 0.0 0.0 0.00 0.00 0.00 76 970.9
20260507130547 57 98 0.0 0.0 0.00 0.00 0.00 78 970.9
20260507125548 57 98 0.0 0.0 0.00 0.00 0.00 79 970.9
20260507124539 57 98 0.0 0.0 0.00 0.00 0.00 79 970.8
20260507122329 57 98 0.0 0.0 0.00 0.00 0.00 79 970.7
20260507121352 57 98 0.0 0.0 0.00 0.00 0.00 79 970.8
20260507120414 57 98 0.0 0.0 0.00 0.00 0.00 79 970.8
20260507115438 57 98 0.0 0.0 0.00 0.00 0.00 79 970.8
20260507114436 57 98 0.0 0.0 0.00 0.00 0.00 78 970.8
20260507113411 57 98 0.0 0.0 0.00 0.00 0.00 78 970.9
20260507112434 57 98 0.0 0.0 0.00 0.00 0.00 77 970.9
20260507111432 57 98 0.0 0.0 0.00 0.00 0.00 78 971.0
20260507110457 57 98 0.0 0.0 0.00 0.00 0.00 78 970.9
20260507105450 58 98 0.0 0.0 0.00 0.00 0.00 78 971.1
20260507104420 58 98 0.0 0.0 0.00 0.00 0.00 77 971.1
20260507103436 57 98 0.0 0.0 0.00 0.00 0.00 79 971.3
20260507102434 57 98 0.0 0.0 0.00 0.00 0.00 79 971.3
20260507101458 57 98 0.0 0.0 0.00 0.00 0.00 79 971.4
20260507100452 57 98 0.0 0.0 0.00 0.00 0.00 79 971.3
20260507095504 57 98 0.0 0.0 0.00 0.00 0.00 79 971.4
20260507094457 57 98 0.0 0.0 0.00 0.00 0.00 78 971.4
20260507093508 57 98 0.0 0.0 0.00 0.00 0.00 77 971.6
20260507092526 57 98 0.0 0.0 0.00 0.00 0.00 77 971.6
20260507091511 57 98 0.0 0.0 0.00 0.00 0.00 76 971.6
20260507090451 57 98 0.0 0.0 0.00 0.00 0.00 75 971.8
20260507085450 57 98 0.0 0.0 0.00 0.00 0.00 74 971.8
20260507082225 57 98 0.0 0.0 0.00 0.00 0.00 73 972.1
20260507081248 57 98 0.0 0.0 0.00 0.00 0.00 72 972.2
20260507080218 57 98 0.0 0.0 0.00 0.00 0.00 73 972.1
20260507075202 56 98 0.0 0.0 0.00 0.00 0.00 76 972.2
20260507074147 55 98 0.0 0.0 0.00 0.00 0.00 80 972.2
20260507073204 55 98 0.0 0.0 0.00 0.00 0.00 82 972.4
20260507072227 55 98 0.0 0.0 0.00 0.00 0.00 84 972.5
20260507071233 55 98 0.0 0.0 0.00 0.00 0.00 85 972.4
20260507070208 55 98 0.0 0.0 0.00 0.00 0.00 85 972.4
20260507065200 55 98 0.0 0.0 0.00 0.00 0.00 85 972.4
20260507064139 55 98 0.0 0.0 0.00 0.00 0.00 85 972.4
20260507063123 56 98 0.0 0.0 0.00 0.00 0.00 84 972.4
20260507062140 56 98 0.0 0.0 0.00 0.00 0.00 83 972.3
20260507060050 57 98 0.0 0.0 0.00 0.00 0.00 80 972.3
20260507055034 58 98 0.0 0.0 0.00 0.00 0.00 77 972.3
20260507054056 59 98 0.0 0.0 0.00 0.00 0.00 74 972.2
20260507053110 58 99 0.0 0.0 0.00 0.00 0.00 76 972.2
20260507050944 56 98 0.0 0.0 0.00 0.00 0.00 83 972.2
20260507045952 56 99 0.0 0.0 0.00 0.00 0.00 84 972.2
20260507044954 56 99 0.0 0.0 0.00 0.00 0.00 83 972.2
20260507044010 56 98 0.0 0.0 0.00 0.00 0.00 83 972.2
20260507041915 57 99 0.0 0.0 0.00 0.00 0.00 82 972.1
20260507040935 57 91 0.0 0.0 0.00 0.00 0.00 82 972.0
20260507034803 58 104 0.0 1.0 0.00 0.00 0.00 78 971.8
20260507033759 58 104 0.0 0.0 0.00 0.00 0.00 79 971.7
20260507032803 58 104 0.0 0.0 0.00 0.00 0.00 78 971.6
20260507031803 58 105 0.0 3.0 0.00 0.00 0.00 77 971.5
20260507030756 58 221 0.0 0.0 0.00 0.00 0.00 76 971.5
20260507025731 58 221 0.0 0.0 0.00 0.00 0.00 75 971.3
20260507024709 59 221 0.0 0.0 0.00 0.00 0.00 74 971.3
20260507023703 60 221 0.0 0.0 0.00 0.00 0.00 73 971.1
20260507022644 60 221 0.0 0.0 0.00 0.00 0.00 72 971.1
20260507020456 62 221 0.0 1.0 0.00 0.00 0.00 70 971.0
20260507015443 62 221 1.0 4.0 0.00 0.00 0.00 70 970.9
20260507013320 64 171 1.0 5.0 0.00 0.00 0.00 66 970.8
20260507012315 64 191 2.0 6.0 0.00 0.00 0.00 64 970.9
20260507011336 65 191 1.0 6.0 0.00 0.00 0.00 62 970.8
20260507010326 65 230 2.0 6.0 0.00 0.00 0.00 60 970.8
20260507005318 65 204 2.0 6.0 0.00 0.00 0.00 59 970.7
20260507004320 65 184 2.0 10.0 0.00 0.00 0.00 58 970.8
20260507003255 64 220 2.0 10.0 0.00 0.00 0.00 60 970.8
20260507001146 64 236 3.0 9.0 0.00 0.00 0.00 61 970.8
20260507000117 65 241 2.0 9.0 0.00 0.00 0.00 61 970.7
20260506235044 66 165 2.0 8.0 0.00 0.00 0.00 61 970.7
20260506234045 66 188 3.0 8.0 0.00 0.00 0.00 58 970.8
20260506231929 66 188 2.0 7.0 0.00 0.00 0.00 54 970.9
20260506230920 67 213 2.0 8.0 0.00 0.00 0.00 55 970.9
20260506225902 67 234 3.0 8.0 0.00 0.00 0.00 57 970.9
20260506224922 67 239 2.0 8.0 0.00 0.00 0.00 56 971.0
20260506222712 67 163 2.0 8.0 0.00 0.00 0.00 57 971.3
20260506221642 68 261 2.0 6.0 0.00 0.00 0.00 54 971.4
20260506215604 68 153 2.0 8.0 0.00 0.00 0.00 54 971.6
20260506214543 68 173 2.0 7.0 0.00 0.00 0.00 52 971.6
20260506213529 69 227 1.0 7.0 0.00 0.00 0.00 52 971.8
20260506212547 68 182 1.0 5.0 0.00 0.00 0.00 53 971.8
20260506211522 69 241 1.0 6.0 0.00 0.00 0.00 53 971.9
20260506210456 68 238 2.0 7.0 0.00 0.00 0.00 54 972.1